Weather History for KONM - April, 2013

Change the Weather History Date:

Friday, April 26, 2013

  Actual Average Record
Temperature  
Mean Temperature 64 °F -  
Max Temperature 81 °F 77 °F 87 °F (2012)
Min Temperature 46 °F 40 °F 42 °F (2015)
Degree Days  
Heating Degree Days 2    
Growing Degree Days 14 (Base 50)    
Moisture  
Dew Point 12 °F    
Average Humidity 14    
Maximum Humidity 24    
Minimum Humidity 7    
Precipitation  
Precipitation 0.00 in - - ()
Sea Level Pressure  
Sea Level Pressure 30.14 in    
Wind  
Wind Speed 7 mph (NNW)    
Max Wind Speed 17 mph    
Max Gust Speed 26 mph    
Visibility 10 miles    
Events      
Averages and records for this station are not official NWS values.
T = Trace of Precipitation, MM = Missing Value Source: NWS Daily Summary

Daily Weather History Graph

Daily Weather History Graph

Search for Another Location

Airport or City:

Trip Planner

Search our weather history database for the weather conditions in past years. The results will help you decide how hot, cold, wet, or windy it might be!

Date:

Astronomy

Apr. 26, 2013 Rise Set
Actual Time 6:23 AM MDT 7:47 PM MDT
Civil Twilight 5:57 AM MDT 8:14 PM MDT
Nautical Twilight 5:25 AM MDT 8:45 PM MDT
Astronomical Twilight 4:52 AM MDT 9:18 PM MDT
Moon 9:09 PM MDT (4/26) 6:55 AM MDT (4/26)
Length of Visible Light 14h 17m
Length of Day
13h 24m
Full, 99% of the Moon is Illuminated
Apr 26
Full
May 2
Last Quarter
May 9
New
May 17
First Quarter
May 24
Full

Hourly Weather History & Observations

Time (MDT) Temp. Windchill Dew Point Humidity Pressure Visibility Wind Dir Wind Speed Gust Speed Precip Events Conditions
12:15 AM 62.6 °F - 12.2 °F 14% 30.06 in 10.0 mi WNW 13.8 mph 23.0 mph N/A   Clear
12:35 AM 61.7 °F - 10.6 °F 13% 30.07 in 10.0 mi NW 12.7 mph 21.9 mph N/A   Clear
1:15 AM 57.6 °F - 8.8 °F 14% 30.08 in 10.0 mi NNW 8.1 mph - N/A   Clear
1:35 AM 60.8 °F - 8.8 °F 13% 30.08 in 10.0 mi NW 11.5 mph 23.0 mph N/A   Clear
1:55 AM 56.1 °F - 7.5 °F 14% 30.09 in 10.0 mi North 4.6 mph - N/A   Clear
2:15 AM 53.8 °F - 6.8 °F 15% 30.08 in 10.0 mi NW 3.5 mph - N/A   Clear
2:35 AM 50.7 °F - 7.0 °F 17% 30.08 in 10.0 mi WNW 3.5 mph - N/A   Clear
2:55 AM 52.5 °F - 7.3 °F 16% 30.08 in 10.0 mi Calm Calm - N/A   Clear
3:15 AM 53.1 °F - 7.2 °F 16% 30.09 in 10.0 mi Calm Calm - N/A   Clear
3:35 AM 50.9 °F - 7.5 °F 17% 30.10 in 10.0 mi Calm Calm - N/A   Clear
3:55 AM 50.5 °F - 8.4 °F 18% 30.10 in 10.0 mi ESE 3.5 mph - N/A   Clear
4:15 AM 52.7 °F - 9.7 °F 18% 30.10 in 10.0 mi ESE 3.5 mph - N/A   Clear
4:35 AM 48.6 °F - 10.4 °F 21% 30.11 in 10.0 mi Calm Calm - N/A   Scattered Clouds
4:55 AM 48.7 °F - 12.4 °F 23% 30.11 in 10.0 mi Calm Calm - N/A   Clear
5:15 AM 48.9 °F - 11.5 °F 22% 30.11 in 10.0 mi North 3.5 mph - N/A   Scattered Clouds
5:35 AM 52.5 °F - 11.3 °F 19% 30.11 in 10.0 mi NNE 3.5 mph - N/A   Clear
5:55 AM 46.4 °F 45.2 °F 11.3 °F 24% 30.12 in 10.0 mi SSW 3.5 mph - N/A   Clear
6:15 AM 48.7 °F - 11.7 °F 23% 30.13 in 10.0 mi Calm Calm - N/A   Clear
6:35 AM 47.1 °F - 10.0 °F 22% 30.12 in 10.0 mi South 3.5 mph - N/A   Clear
6:55 AM 47.1 °F - 10.9 °F 23% 30.14 in 10.0 mi Calm Calm - N/A   Clear
7:15 AM 50.4 °F - 12.4 °F 22% 30.14 in 10.0 mi SSE 4.6 mph - N/A   Clear
7:35 AM 52.7 °F - 12.9 °F 21% 30.15 in 10.0 mi Calm Calm - N/A   Clear
7:55 AM 54.7 °F - 13.3 °F 19% 30.17 in 10.0 mi SE 4.6 mph - N/A   Clear
8:15 AM 55.8 °F - 13.3 °F 19% 30.17 in 10.0 mi SSE 5.8 mph - N/A   Clear
8:35 AM 57.4 °F - 14.4 °F 18% 30.18 in 10.0 mi South 5.8 mph - N/A   Clear
8:55 AM 59.4 °F - 16.2 °F 19% 30.18 in 10.0 mi SE 3.5 mph - N/A   Clear
9:15 AM 60.3 °F - 18.0 °F 19% 30.18 in 10.0 mi Calm Calm - N/A   Clear
9:35 AM 62.2 °F - 19.4 °F 19% 30.18 in 10.0 mi ENE 3.5 mph - N/A   Clear
9:55 AM 63.5 °F - 19.9 °F 19% 30.19 in 10.0 mi NNW 3.5 mph - N/A   Clear
10:15 AM 64.8 °F - 19.9 °F 18% 30.18 in 10.0 mi Calm Calm - N/A   Clear
10:35 AM 67.3 °F - 20.3 °F 17% 30.19 in 10.0 mi East 4.6 mph - N/A   Clear
10:55 AM 68.7 °F - 20.7 °F 16% 30.18 in 10.0 mi NE 8.1 mph - N/A   Clear
11:15 AM 72.0 °F - 20.5 °F 14% 30.17 in 10.0 mi ENE 5.8 mph - N/A   Clear
11:35 AM 74.1 °F - 16.9 °F 11% 30.17 in 10.0 mi North 16.1 mph 21.9 mph N/A   Scattered Clouds
11:55 AM 75.4 °F - 15.6 °F 10% 30.16 in 10.0 mi North 9.2 mph 17.3 mph N/A   Scattered Clouds
12:15 PM 76.3 °F - 14.4 °F 10% 30.16 in 10.0 mi NNW 11.5 mph 23.0 mph N/A   Clear
12:35 PM 76.6 °F - 14.4 °F 9% 30.16 in 10.0 mi WNW 15.0 mph 21.9 mph N/A   Clear
12:55 PM 76.8 °F - 14.0 °F 9% 30.15 in 10.0 mi West 11.5 mph 26.5 mph N/A   Clear
1:15 PM 77.4 °F - 13.5 °F 9% 30.14 in 10.0 mi WNW 16.1 mph 23.0 mph N/A   Clear
1:35 PM 78.1 °F - 12.9 °F 8% 30.14 in 10.0 mi WNW 5.8 mph 19.6 mph N/A   Clear
1:55 PM 79.0 °F - 12.9 °F 8% 30.13 in 10.0 mi NNE 6.9 mph - N/A   Clear
2:15 PM 79.3 °F - 12.2 °F 8% 30.13 in 10.0 mi West 13.8 mph 23.0 mph N/A   Clear
2:35 PM 79.3 °F - 10.6 °F 7% 30.13 in 10.0 mi Calm Calm - N/A   Clear
2:55 PM 80.2 °F - 11.8 °F 8% 30.12 in 10.0 mi North 11.5 mph 19.6 mph N/A   Clear
3:15 PM 77.0 °F - 11.1 °F 8% 30.12 in 10.0 mi North 8.1 mph - N/A   Clear
3:35 PM 79.7 °F - 12.2 °F 8% 30.10 in 10.0 mi NNW 17.3 mph 26.5 mph N/A   Clear
3:55 PM 78.4 °F - 10.4 °F 7% 30.10 in 10.0 mi NNW 11.5 mph 21.9 mph N/A   Clear
4:15 PM 81.1 °F - 10.9 °F 7% 30.10 in 10.0 mi NW 15.0 mph 19.6 mph N/A   Clear
4:35 PM 81.0 °F - 10.9 °F 7% 30.10 in 10.0 mi NW 11.5 mph 17.3 mph N/A   Clear
4:55 PM 81.0 °F - 10.9 °F 7% 30.09 in 10.0 mi NW 13.8 mph 19.6 mph N/A   Clear
5:15 PM 80.4 °F - 10.8 °F 7% 30.09 in 10.0 mi NNW 12.7 mph 26.5 mph N/A   Clear
5:35 PM 79.5 °F - 10.8 °F 7% 30.09 in 10.0 mi NNW 11.5 mph - N/A   Clear
5:55 PM 78.8 °F - 11.3 °F 8% 30.10 in 10.0 mi NNW 9.2 mph - N/A   Clear
6:15 PM 78.4 °F - 10.8 °F 8% 30.10 in 10.0 mi NW 12.7 mph 16.1 mph N/A   Clear
6:35 PM 77.0 °F - 11.5 °F 8% 30.10 in 10.0 mi North 12.7 mph - N/A   Clear
6:55 PM 74.8 °F - 11.5 °F 9% 30.11 in 10.0 mi NNE 12.7 mph - N/A   Clear
7:15 PM 74.3 °F - 11.1 °F 9% 30.11 in 10.0 mi North 11.5 mph 16.1 mph N/A   Clear
7:35 PM 73.2 °F - 12.0 °F 10% 30.12 in 10.0 mi North 10.4 mph - N/A   Clear
7:55 PM 72.0 °F - 12.0 °F 10% 30.13 in 10.0 mi North 9.2 mph - N/A   Scattered Clouds
8:15 PM 70.7 °F - 13.5 °F 11% 30.14 in 10.0 mi North 5.8 mph - N/A   Clear
8:35 PM 69.8 °F - 13.1 °F 11% 30.16 in 10.0 mi North 6.9 mph - N/A   Clear
8:55 PM 69.1 °F - 12.9 °F 11% 30.16 in 10.0 mi NW 3.5 mph - N/A   Clear
9:15 PM 67.8 °F - 12.2 °F 12% 30.17 in 10.0 mi NNW 6.9 mph - N/A   Clear
9:35 PM 67.6 °F - 12.2 °F 12% 30.19 in 10.0 mi NNW 5.8 mph - N/A   Clear
9:55 PM 65.5 °F - 12.0 °F 13% 30.19 in 10.0 mi NNW 5.8 mph - N/A   Clear
10:15 PM 63.1 °F - 11.7 °F 13% 30.20 in 10.0 mi NW 4.6 mph - N/A   Clear
10:35 PM 63.1 °F - 11.1 °F 13% 30.20 in 10.0 mi North 3.5 mph - N/A   Clear
10:55 PM 61.0 °F - 10.4 °F 14% 30.20 in 10.0 mi Calm Calm - N/A   Clear
11:15 PM 60.4 °F - 9.5 °F 13% 30.20 in 10.0 mi Calm Calm - N/A   Clear
11:35 PM 56.3 °F - 9.0 °F 15% 30.20 in 10.0 mi WNW 4.6 mph - N/A   Clear
11:55 PM 57.4 °F - 9.7 °F 15% 30.21 in 10.0 mi WNW 3.5 mph - N/A   Clear